Paducah, KY

8:31 AM CDT on April 22, 2018 (GMT -0500)
Barkley Regional

Weather History for KPAH - November, 2013

Change the Weather History Date:

Tuesday, November 5, 2013

  Actual Average Record
Temperature  
Mean Temperature 59 °F 52 °F  
Max Temperature 66 °F 64 °F 79 °F (2005)
Min Temperature 51 °F 42 °F 16 °F (1991)
Degree Days  
Heating Degree Days 6 13  
Month to date heating degree days 60 61  
Since 1 July heating degree days 269 328  
Cooling Degree Days 0 0  
Month to date cooling degree days 0 0  
Year to date cooling degree days 1478 1538  
Growing Degree Days 8 (Base 50)    
Moisture  
Dew Point 45 °F    
Average Humidity 63    
Maximum Humidity 77    
Minimum Humidity 48    
Precipitation  
Precipitation 0.00 in 0.13 in 0.80 in (1994)
Month to date precipitation T 0.63  
Year to date precipitation 49.93 40.82  
Snow  
Snow 0.00 in 0.00 in T in (1992)
Month to date snowfall 0.0 0.0  
Since 1 July snowfall 0.0 0.1  
Since 1 September snowfall 0.0 0.1  
Snow Depth 0.00 in    
Sea Level Pressure  
Sea Level Pressure 30.23 in    
Wind  
Wind Speed 8 mph (SSE)    
Max Wind Speed 16 mph    
Max Gust Speed 21 mph    
Visibility 10 miles    
Events      
T = Trace of Precipitation, MM = Missing Value Source: NWS Daily Summary

Daily Weather History Graph

Daily Weather History Graph

Search for Another Location

Airport or City:

Astronomy

Nov. 05, 2013 Rise Set
Actual Time 6:23 AM CST 4:53 PM CST
Civil Twilight 5:56 AM CST 5:20 PM CST
Nautical Twilight 5:25 AM CST 5:51 PM CST
Astronomical Twilight 4:55 AM CST 6:21 PM CST
Moon 8:36 AM CST (11/5) 6:56 PM CST (11/5)
Length of Visible Light 11h 23m
Length of Day
10h 29m
Waxing Crescent, 7% of the Moon is Illuminated
Nov 5
Waxing Crescent
Nov 9
First Quarter
Nov 17
Full
Nov 25
Last Quarter
Dec 2
New

Hourly Weather History & Observations

Time (CST) Temp. Dew Point Humidity Pressure Visibility Wind Dir Wind Speed Gust Speed Precip Events Conditions
12:53 AM 53.1 °F 46.0 °F 77% 30.30 in 10.0 mi Calm Calm - N/A   Clear
1:53 AM 54.0 °F 44.1 °F 69% 30.27 in 10.0 mi SSE 6.9 mph - N/A   Clear
2:53 AM 53.1 °F 44.1 °F 71% 30.27 in 10.0 mi SE 5.8 mph - N/A   Clear
3:53 AM 54.0 °F 43.0 °F 66% 30.27 in 10.0 mi SSE 8.1 mph - N/A   Clear
4:53 AM 54.0 °F 43.0 °F 66% 30.28 in 10.0 mi SSE 8.1 mph - N/A   Clear
5:53 AM 54.0 °F 43.0 °F 66% 30.29 in 10.0 mi SSE 5.8 mph - N/A   Clear
6:53 AM 54.0 °F 42.1 °F 64% 30.30 in 10.0 mi SSE 8.1 mph - N/A   Partly Cloudy
7:53 AM 55.0 °F 42.1 °F 62% 30.32 in 10.0 mi South 8.1 mph - N/A   Clear
8:53 AM 57.9 °F 41.0 °F 53% 30.32 in 10.0 mi South 10.4 mph 19.6 mph N/A   Mostly Cloudy
9:53 AM 60.1 °F 42.1 °F 51% 30.32 in 10.0 mi SSE 10.4 mph 17.3 mph N/A   Mostly Cloudy
10:53 AM 62.1 °F 43.0 °F 50% 30.29 in 10.0 mi SSE 11.5 mph - N/A   Scattered Clouds
11:53 AM 64.0 °F 44.1 °F 48% 30.27 in 10.0 mi South 6.9 mph - N/A   Mostly Cloudy
12:53 PM 64.0 °F 44.1 °F 48% 30.24 in 10.0 mi SSE 8.1 mph - N/A   Overcast
1:53 PM 63.0 °F 45.0 °F 52% 30.21 in 10.0 mi SE 9.2 mph - N/A   Overcast
2:53 PM 64.0 °F 45.0 °F 50% 30.19 in 10.0 mi SE 6.9 mph - N/A   Overcast
3:53 PM 66.0 °F 46.0 °F 48% 30.17 in 10.0 mi SSE 6.9 mph - N/A   Overcast
4:53 PM 64.0 °F 46.0 °F 52% 30.16 in 10.0 mi SE 5.8 mph - N/A   Overcast
5:53 PM 64.0 °F 46.9 °F 54% 30.16 in 10.0 mi SE 5.8 mph - N/A   Overcast
6:53 PM 64.0 °F 46.9 °F 54% 30.14 in 10.0 mi SSE 8.1 mph - N/A   Overcast
7:53 PM 64.0 °F 48.9 °F 58% 30.13 in 10.0 mi South 9.2 mph - N/A   Overcast
8:53 PM 63.0 °F 48.9 °F 60% 30.14 in 10.0 mi SSE 12.7 mph - N/A   Clear
9:53 PM 62.1 °F 48.0 °F 60% 30.15 in 10.0 mi South 10.4 mph - N/A   Scattered Clouds
10:53 PM 62.1 °F 46.9 °F 58% 30.15 in 10.0 mi South 11.5 mph - N/A   Overcast
11:53 PM 61.0 °F 46.0 °F 58% 30.14 in 10.0 mi South 12.7 mph - N/A   Overcast